Location: Dal�� Lhota
(48.7500°N, 14.0167°E)
Time: 18:39:17
(UTC+00:00)

Vanguard 3 - Pass Details

Date: 05 August 2021
Orbit: 510 x 3260 km, 33.3° (Epoch: 20 September)

Event Time Altitude Azimuth Distance (km) Brightness Sun altitude
Rises 13:11:55 0° 178° (S) 4,531 11.3 49.6°
Reaches altitude 10° 13:17:15 10° 152° (SSE) 4,159 11.0 48.9°
Maximum altitude 13:21:36 13° 129° (SE) 4,380 10.9 48.4°
Drops below altitude 10° 13:26:44 10° 108° (ESE) 5,088 11.1 47.7°
Sets 13:35:10 0° 86° (E) 6,716 11.5 46.6°
